Home > Weather > Firenze > Past weeks

Flag for Italy Past Weather in Firenze, Italy — Yesterday and Last 2 Weeks

Now
88 °F

Passing clouds.


Feels Like: 86 °F
Forecast: 64 / 96 °F
Wind: 8 mph from North

Location: Florence / Peretola

Current Time: Aug 26, 2016 at 8:48:52 PM

Latest Report: Aug 26, 2016 at 7:50 PM


Visibility: N/A

Pressure: 30.04 "Hg

Humidity: 31%

Dew Point: 54 °F

Location of FirenzeLocation

Past Weather in Firenze — Graph

°F

Firenze Temperature Yesterday

Maximum temperature yesterday: 93 °F (at 3:50 PM)
Minimum temperature yesterday: 73 °F (at 3:20 AM)
Average temperature yesterday: 83 °F

High & Low Weather Summary for the Past Weeks

 TemperatureHumidityPressure
High97 °F (Aug 14, 2:50 PM)94% (Aug 19, 6:20 AM)30.27 "Hg (Aug 19, 6:20 AM)
Low61 °F (Aug 12, 5:50 AM)21% (Aug 23, 4:20 PM)29.80 "Hg (Aug 18, 4:20 PM)
Average80 °F51%30.05 "Hg
* Reported Aug 11 7:20 PM — Aug 26 7:50 PM, Firenze, Weather by CustomWeather, © 2016

Note: Actual official high and low records may vary slightly from our data, if they occured in-between our weather recording intervals... More about our weather records

Advertising

Firenze Weather History for the Previous 24 Hours

Scroll right to see more
 ConditionsComfort  
Time TempWeatherWind HumidityBarometerVisibility
7:50 PM
Fri, Aug 26
88 °FPassing clouds.8 mph31%30.04 "HgN/A
7:20 PM90 °FPassing clouds.10 mph31%30.01 "HgN/A
6:50 PM91 °FPassing clouds.10 mph30%30.01 "HgN/A
6:20 PM91 °FPassing clouds.10 mph26%30.01 "HgN/A
5:50 PM93 °FPassing clouds.12 mph26%30.01 "HgN/A
5:20 PM93 °FPassing clouds.10 mph26%30.01 "HgN/A
4:50 PM93 °FPassing clouds.12 mph26%30.01 "HgN/A
4:20 PM93 °FPassing clouds.12 mph26%30.04 "HgN/A
3:50 PM93 °FPassing clouds.12 mph24%30.04 "HgN/A
3:20 PM95 °FPassing clouds.12 mph23%30.04 "HgN/A
2:50 PM93 °FPassing clouds.12 mph24%30.04 "HgN/A
2:20 PM93 °FPassing clouds.10 mph23%30.04 "HgN/A
1:50 PM93 °FPassing clouds.13 mph23%30.04 "HgN/A
1:20 PM91 °FPassing clouds.10 mph24%30.04 "HgN/A
12:50 PM91 °FPassing clouds.12 mph26%30.07 "HgN/A
12:20 PM91 °FSunny.13 mph24%30.07 "Hg10 mi
11:50 AM90 °FPassing clouds.9 mph26%30.07 "HgN/A
11:20 AM88 °FPassing clouds.10 mph33%30.07 "HgN/A
10:50 AM86 °FPassing clouds.10 mph35%30.07 "HgN/A
10:20 AM86 °FPassing clouds.8 mph38%30.09 "HgN/A
9:50 AM84 °FPassing clouds.6 mph40%30.07 "HgN/A
9:20 AM82 °FPassing clouds.6 mph45%30.07 "HgN/A
8:50 AM82 °FPassing clouds.6 mph45%30.07 "HgN/A
8:20 AM81 °FPassing clouds.3 mph48%30.07 "HgN/A
7:50 AM77 °FSunny.1 mph54%30.07 "Hg10 mi
7:20 AM73 °FClear.7 mph61%30.07 "Hg10 mi
6:50 AM68 °FPassing clouds.5 mph69%30.07 "HgN/A
6:20 AM72 °FClear.1 mph61%30.07 "Hg10 mi
5:50 AM73 °FClear.2 mph57%30.07 "Hg10 mi
5:20 AM73 °FClear.1 mph57%30.07 "Hg10 mi
4:50 AM73 °FClear.2 mph57%30.07 "Hg10 mi
4:20 AM75 °FClear.3 mph54%30.07 "Hg10 mi
3:50 AM75 °FPassing clouds.5 mph54%30.07 "HgN/A
3:20 AM77 °FClear.9 mph51%30.07 "Hg10 mi
2:50 AM77 °FPassing clouds.7 mph51%30.07 "HgN/A
2:20 AM77 °FPassing clouds.6 mph51%30.07 "HgN/A
1:50 AM77 °FClear.2 mph47%30.07 "Hg10 mi
1:20 AM79 °FPassing clouds.8 mph45%30.07 "HgN/A
12:50 AM77 °FPassing clouds.5 mph47%30.07 "HgN/A
12:20 AM79 °FPassing clouds.8 mph42%30.07 "HgN/A
11:50 PM
Thu, Aug 25
79 °FPassing clouds.9 mph42%30.07 "HgN/A
11:20 PM79 °FPassing clouds.7 mph45%30.04 "HgN/A
10:50 PM79 °FPassing clouds.10 mph45%30.04 "HgN/A
10:20 PM79 °FClear.3 mph45%30.04 "Hg10 mi
9:50 PM81 °FClear.2 mph42%30.04 "Hg10 mi
9:20 PM81 °FClear.5 mph42%30.04 "Hg10 mi
8:50 PM82 °FSunny.2 mph45%30.04 "Hg10 mi
8:20 PM82 °FSunny.3 mph45%30.01 "Hg10 mi
Weather by CustomWeather, © 2016

See weather overviewHow to use our weather pages